Location: Northern Prairie Star Party
(53.2167°N, 112.5333°W)
Time: 19:27:59
(UTC-06:00)

Amateur Radio Satellites - All Passes

Search period start: 27 July 2015 18:57
Search period end: 28 July 2015 18:57
Location: Northern Prairie Star Party, 53.2167°N, 112.5333°W

Satellite Date Start Highest point End Downlink Frequencies (MHz)
Time Altitude Azimuth
GOMX 1 27 Jul 19:01:39 19:03:44 14° 56° (NE) 19:05:56 467.674
MOZHAYETS 4 27 Jul 19:09:03 19:13:24 38° 294° (WNW) 19:17:40
CUBESAT XI-V 27 Jul 19:11:42 19:15:51 32° 94° (E) 19:20:01 437.345
DOVE 4 27 Jul 19:15:37 19:17:11 12° 54° (NE) 19:18:54 437.250
STRAND 1 27 Jul 19:17:04 19:19:46 15° 84° (E) 19:22:40 437.568
HO-68 27 Jul 19:35:59 19:42:20 37° 55° (NE) 19:48:46 435.675
Cosmos 2499 27 Jul 19:44:38 19:53:07 68° 74° (ENE) 20:01:58 435.465 / 435.565
CUTE-I 27 Jul 19:49:36 19:54:22 31° 267° (W) 19:59:07 437.470
PCSat 27 Jul 19:51:23 19:56:49 71° 235° (SW) 20:02:13 145.827
SO-50 27 Jul 19:57:51 20:02:43 55° 234° (SW) 20:07:31 436.795
BRITE-PL 27 Jul 20:00:20 20:04:44 64° 73° (ENE) 20:08:56 437.365/2234.400
CINEMA 3 27 Jul 20:01:13 20:03:38 16° 56° (ENE) 20:06:12 145.822/145.860
COMPASS 1 27 Jul 20:11:12 20:14:22 21° 60° (ENE) 20:17:37 437.405
CUTE 1.7 + AOD 2 27 Jul 20:11:47 20:15:29 30° 64° (ENE) 20:19:15 437.475
SEEDS 27 Jul 20:17:15 20:20:52 28° 64° (ENE) 20:24:33 437.485
CANX-2 27 Jul 20:19:05 20:23:00 37° 66° (ENE) 20:27:00 2200.000
GONETS M04 27 Jul 20:22:49 20:30:02 30° 280° (W) 20:37:04
Cubesat XI-IV 27 Jul 20:34:17 20:37:30 15° 276° (W) 20:40:31 437.490
GOMX 1 27 Jul 20:37:03 20:41:21 86° 73° (ENE) 20:45:32 467.674
ZACube-1 27 Jul 20:48:31 20:50:53 15° 55° (NE) 20:53:23 437.345
CUBESAT XI-V 27 Jul 20:49:04 20:53:24 40° 294° (WNW) 20:57:41 437.345
DOVE 4 27 Jul 20:50:08 20:54:18 74° 73° (ENE) 20:58:28 437.250
PRISM 27 Jul 20:52:18 20:56:28 73° 104° (ESE) 21:00:35 437.425
STRAND 1 27 Jul 20:54:44 20:59:55 82° 107° (ESE) 21:05:02 437.568
AAUSAT CUBESAT 2 27 Jul 20:56:06 21:00:05 43° 68° (ENE) 21:04:07 437.432
UWE-3 27 Jul 20:59:58 21:03:10 22° 60° (ENE) 21:06:30 435.000/436.395/437.385
CUBEBUG 2 27 Jul 21:04:27 21:08:01 28° 63° (ENE) 21:11:42 437.445
FUNcube-1 27 Jul 21:11:29 21:14:41 22° 60° (ENE) 21:18:01 145.935
DELFI C3 27 Jul 21:18:04 21:21:27 26° 63° (ENE) 21:24:54 145.870
HO-68 27 Jul 21:22:39 21:29:46 66° 256° (WSW) 21:36:55 435.675
Oscar 11 27 Jul 21:32:03 21:36:14 48° 68° (ENE) 21:40:28 145.826/435.025
UKube-1 27 Jul 21:34:56 21:37:21 15° 54° (NE) 21:39:53 .
CINEMA 3 27 Jul 21:36:10 21:40:19 84° 255° (WSW) 21:44:34 145.822/145.860
PCSat 27 Jul 21:36:23 21:39:24 15° 254° (WSW) 21:42:11 145.827
Cosmos 2499 27 Jul 21:38:17 21:45:54 37° 276° (W) 21:53:39 435.465 / 435.565
BRITE-PL 27 Jul 21:40:40 21:43:45 18° 271° (W) 21:46:37 437.365/2234.400
SO-50 27 Jul 21:41:11 21:42:20 11° 252° (WSW) 21:43:14 436.795
ESTCUBE 1 27 Jul 21:44:34 21:45:10 10° 49° (NE) 21:45:57 437.505/2401.250
COMPASS 1 27 Jul 21:45:31 21:49:41 58° 259° (W) 21:53:55 437.405
50 SAT 27 Jul 21:46:28 21:47:56 12° 55° (NE) 21:49:32 437.505
CUTE 1.7 + AOD 2 27 Jul 21:47:16 21:51:18 39° 264° (W) 21:55:22 437.475
VELOX 1 27 Jul 21:50:47 21:53:07 15° 54° (NE) 21:55:36 145.980
SEEDS 27 Jul 21:52:28 21:56:32 42° 263° (W) 22:00:37 437.485
DX 1 27 Jul 21:54:07 21:57:26 22° 59° (ENE) 22:00:51 434.975-435.025
CANX-2 27 Jul 21:55:09 21:59:00 31° 266° (W) 22:02:50 2200.000
RS-15 27 Jul 22:00:35 22:08:51 27° 104° (ESE) 22:17:43 29.354- 29.394
M-CUBED/EXP-1 PRIME 27 Jul 22:04:06 22:07:02 16° 92° (E) 22:10:08 437.505
HUMSAT D 27 Jul 22:14:39 22:18:28 37° 66° (ENE) 22:22:22 437.325/437.525
GOMX 1 27 Jul 22:18:11 22:20:12 13° 275° (W) 22:22:00 467.674
ZACube-1 27 Jul 22:22:27 22:26:38 89° 76° (ENE) 22:30:58 437.345
PRISM 27 Jul 22:28:38 22:31:28 18° 303° (WNW) 22:34:10 437.425
Cosmos 2491 27 Jul 22:29:28 22:36:01 23° 48° (NE) 22:42:47 435.465 / 435.565
DOVE 4 27 Jul 22:30:16 22:32:41 15° 274° (W) 22:34:57 437.250
AAUSAT CUBESAT 2 27 Jul 22:32:18 22:35:51 26° 268° (W) 22:39:24 437.432
STRAND 1 27 Jul 22:34:45 22:38:36 21° 305° (NW) 22:42:20 437.568
UWE-3 27 Jul 22:35:16 22:39:23 56° 260° (W) 22:43:38 435.000/436.395/437.385
AUBIESAT-1 27 Jul 22:37:43 22:41:43 27° 98° (E) 22:45:46 437.475
CUBEBUG 2 27 Jul 22:40:38 22:44:35 40° 263° (W) 22:48:39 437.445
AISAT 27 Jul 22:44:27 22:48:30 37° 65° (ENE) 22:52:35 437.250
FUNcube-1 27 Jul 22:46:35 22:50:42 56° 259° (W) 22:54:55 145.935
DELFI C3 27 Jul 22:52:29 22:56:22 41° 262° (W) 23:00:17 145.870
UNISAT 6 27 Jul 22:54:09 22:56:49 15° 86° (E) 22:59:40 437.425
TISAT 1 27 Jul 23:08:30 23:09:15 10° 51° (NE) 23:10:10 437.305
UKube-1 27 Jul 23:08:33 23:12:53 85° 74° (ENE) 23:17:15 .
Oscar 11 27 Jul 23:09:06 23:12:40 24° 269° (W) 23:16:13 145.826/435.025
CUBEBUG 1 27 Jul 23:14:07 23:18:12 40° 67° (ENE) 23:22:19 437.445
HO-68 27 Jul 23:14:51 23:19:06 16° 279° (W) 23:23:00 435.675
ESTCUBE 1 27 Jul 23:16:43 23:21:06 50° 69° (ENE) 23:25:32 437.505/2401.250
CINEMA 3 27 Jul 23:17:02 23:18:22 11° 277° (W) 23:19:32 145.822/145.860
50 SAT 27 Jul 23:17:59 23:21:52 77° 74° (ENE) 23:25:49 437.505
VELOX 1 27 Jul 23:24:37 23:29:02 80° 73° (ENE) 23:33:29 145.980
DX 1 27 Jul 23:29:05 23:33:23 58° 258° (WSW) 23:37:42 434.975-435.025
M-CUBED/EXP-1 PRIME 27 Jul 23:37:39 23:42:27 90° 73° (ENE) 23:47:17 437.505
ANTELSAT 27 Jul 23:38:12 23:42:27 35° 95° (E) 23:46:47 437.575/2403.000
TIGRISAT 27 Jul 23:38:36 23:42:49 34° 95° (E) 23:47:07 435.000
POLYITAN 1 27 Jul 23:46:28 23:49:24 18° 89° (E) 23:52:27 437.675
HUMSAT D 27 Jul 23:50:38 23:54:17 29° 266° (W) 23:57:58 437.325/437.525
AIST 1 27 Jul 23:52:29 23:56:35 42° 72° (ENE) 00:00:40
ZACube-1 28 Jul 00:01:47 00:03:46 13° 276° (W) 00:05:35 437.345
POPSAT HIP 1 28 Jul 00:05:11 00:08:45 26° 93° (E) 00:12:22 437.405
RS-15 28 Jul 00:08:39 00:19:36 79° 128° (SE) 00:31:04 29.354- 29.394
SPROUT 28 Jul 00:09:02 00:13:06 45° 68° (ENE) 00:17:12 437.525
QB50P2 28 Jul 00:11:26 00:15:12 30° 95° (E) 00:19:00 145.880/145.840
AUBIESAT-1 28 Jul 00:12:02 00:16:40 55° 297° (WNW) 00:21:18 437.475
AISAT 28 Jul 00:21:08 00:25:08 32° 265° (W) 00:29:07 437.250
Cosmos 2491 28 Jul 00:26:01 00:34:47 74° 75° (ENE) 00:43:30 435.465 / 435.565
UNISAT 6 28 Jul 00:29:37 00:34:17 87° 286° (WNW) 00:38:59 437.425
ISS 28 Jul 00:30:37 00:33:17 23° 150° (SSE) 00:35:58 145.825
BUGSAT 1 28 Jul 00:35:15 00:38:52 31° 95° (E) 00:42:32 437.445
BEESAT 28 Jul 00:39:02 00:42:12 18° 55° (NE) 00:45:28 436.000
TISAT 1 28 Jul 00:40:07 00:44:13 58° 70° (ENE) 00:48:22 437.305
QB50P1 28 Jul 00:40:54 00:45:05 55° 100° (E) 00:49:16 145.935-145.965
DUCHIFAT 1 28 Jul 00:41:27 00:45:36 53° 100° (E) 00:49:46 145.980
NANOSAT C BR1 28 Jul 00:44:10 00:48:21 58° 101° (E) 00:52:33 145.865
UKube-1 28 Jul 00:47:18 00:49:41 14° 274° (W) 00:51:54 .
CUBEBUG 1 28 Jul 00:50:51 00:54:41 29° 266° (W) 00:58:29 437.445
BEESAT 3 28 Jul 00:52:58 00:54:33 12° 112° (ESE) 00:56:18 437.485
ESTCUBE 1 28 Jul 00:54:28 00:58:16 25° 268° (W) 01:02:00 437.505/2401.250
50 SAT 28 Jul 00:55:03 00:57:02 13° 274° (W) 00:58:53 437.505
YUBILEINY 28 Jul 00:57:28 01:05:17 40° 85° (E) 01:13:16 435.215
SWISSCUBE 28 Jul 00:57:54 01:01:48 26° 59° (ENE) 01:05:47 437.505
VELOX 1 28 Jul 01:03:30 01:06:13 15° 273° (W) 01:08:47 145.980
M-CUBED/EXP-1 PRIME 28 Jul 01:13:13 01:16:42 20° 310° (NW) 01:20:08 437.505
ANTELSAT 28 Jul 01:14:59 01:19:16 38° 294° (WNW) 01:23:35 437.575/2403.000
TIGRISAT 28 Jul 01:15:19 01:19:37 38° 294° (WNW) 01:23:56 435.000
ITUPSAT 1 28 Jul 01:16:03 01:20:18 32° 62° (ENE) 01:24:35 437.325
POLYITAN 1 28 Jul 01:21:30 01:25:44 63° 289° (WNW) 01:29:58 437.675
AIST 1 28 Jul 01:30:31 01:34:03 25° 272° (W) 01:37:29
POPSAT HIP 1 28 Jul 01:40:45 01:44:49 43° 292° (WNW) 01:48:50 437.405
BEESAT 2 28 Jul 01:41:43 01:45:07 26° 120° (ESE) 01:48:35 435.950
PHONESAT 2.4 28 Jul 01:43:51 01:44:31 10° 183° (S) 01:45:10 2401.200-2431.200
SPROUT 28 Jul 01:45:47 01:49:23 25° 268° (W) 01:52:56 437.525
QB50P2 28 Jul 01:47:14 01:51:11 37° 294° (WNW) 01:55:06 145.880/145.840
AUBIESAT-1 28 Jul 01:48:08 01:50:32 14° 316° (NW) 01:52:48 437.475
ISS 28 Jul 02:06:07 02:09:21 58° 169° (S) 02:12:35 145.825
UNISAT 6 28 Jul 02:07:31 02:10:28 17° 305° (NW) 02:13:20 437.425
BUGSAT 1 28 Jul 02:10:42 02:14:22 33° 295° (WNW) 02:18:00 437.445
O/OREOS (USA 219) 28 Jul 02:14:28 02:15:41 11° 98° (E) 02:17:08 437.305
BEESAT 28 Jul 02:14:38 02:19:28 90° 261° (W) 02:24:18 436.000
TISAT 1 28 Jul 02:17:19 02:20:23 19° 270° (W) 02:23:22 437.305
QB50P1 28 Jul 02:17:20 02:20:40 22° 299° (WNW) 02:23:57 145.935-145.965
DUCHIFAT 1 28 Jul 02:17:47 02:21:08 23° 299° (WNW) 02:24:26 145.980
NANOSAT C BR1 28 Jul 02:20:37 02:23:52 21° 300° (WNW) 02:27:04 145.865
RS-15 28 Jul 02:22:02 02:32:56 55° 338° (NNW) 02:44:22 29.354- 29.394
Cosmos 2491 28 Jul 02:23:32 02:31:03 33° 278° (W) 02:38:23 435.465 / 435.565
BEESAT 3 28 Jul 02:27:45 02:31:50 73° 131° (SE) 02:35:56 437.485
STARS 28 Jul 02:32:37 02:35:55 22° 59° (ENE) 02:39:18 437.465
SWISSCUBE 28 Jul 02:34:36 02:39:22 58° 259° (W) 02:44:09 437.505
Oscar 19 28 Jul 02:36:02 02:40:51 38° 96° (E) 02:45:42 437.125/150
AIST 2 28 Jul 02:42:25 02:45:58 26° 120° (ESE) 02:49:36 435.215
KKS-1 28 Jul 02:46:33 02:50:40 40° 66° (ENE) 02:54:51 437.445
YUBILEINY 28 Jul 02:53:13 03:01:50 62° 289° (WNW) 03:10:33 435.215
ITUPSAT 1 28 Jul 02:53:27 02:58:04 45° 261° (W) 03:02:43 437.325
Gurwin Techsat 1B 28 Jul 02:57:31 03:01:34 22° 88° (E) 03:05:42 435.225
POLYITAN 1 28 Jul 02:59:24 03:00:54 11° 308° (NW) 03:02:14 437.675
Cosmos 2504 28 Jul 03:03:30 03:09:22 29° 81° (E) 03:15:43 435.465 / 435.565
MOZHAYETS 4 28 Jul 03:05:43 03:07:43 13° 52° (NE) 03:09:52
BEESAT 2 28 Jul 03:18:50 03:22:55 59° 319° (NW) 03:27:02 435.950
ISS 28 Jul 03:42:25 03:45:39 60° 189° (S) 03:48:53 145.825
ITAMSAT 1 28 Jul 03:46:37 03:51:36 45° 98° (E) 03:56:34 435.822/435.867
O/OREOS (USA 219) 28 Jul 03:49:52 03:54:21 73° 117° (ESE) 03:58:52 437.305
BEESAT 28 Jul 03:55:13 03:58:04 15° 275° (W) 04:00:46 436.000
BEESAT 3 28 Jul 04:06:32 04:10:08 28° 332° (NNW) 04:13:44 437.485
JAS-2 28 Jul 04:07:38 04:14:46 41° 93° (E) 04:22:09 435.910
STARS 28 Jul 04:07:41 04:12:01 61° 258° (WSW) 04:16:23 437.465
Oscar 19 28 Jul 04:15:27 04:20:17 40° 296° (WNW) 04:25:04 437.125/150
AO-7 28 Jul 04:16:49 04:23:09 24° 86° (E) 04:29:41 29.400- 29.500
AIST 2 28 Jul 04:20:04 04:24:18 60° 319° (NW) 04:28:32 435.215
KKS-1 28 Jul 04:23:29 04:27:25 30° 265° (W) 04:31:20 437.445
Gurwin Techsat 1B 28 Jul 04:36:49 04:42:09 72° 289° (WNW) 04:47:27 435.225
RS-15 28 Jul 04:37:01 04:47:56 49° 10° (N) 04:59:26 29.354- 29.394
MOZHAYETS 4 28 Jul 04:39:33 04:44:08 64° 71° (ENE) 04:48:47
CUBESAT XI-V 28 Jul 04:46:52 04:48:49 13° 52° (NE) 04:50:56 437.345
Cosmos 2504 28 Jul 04:53:47 05:00:55 72° 285° (WNW) 05:08:38 435.465 / 435.565
YUBILEINY 28 Jul 04:54:49 05:00:59 20° 316° (NW) 05:06:56 435.215
BEESAT 2 28 Jul 04:58:32 05:01:44 21° 342° (NNW) 05:04:55 435.950
HORYU 2 28 Jul 05:13:09 05:17:30 44° 99° (E) 05:21:50 437.375
ISS 28 Jul 05:18:59 05:21:45 25° 209° (SSW) 05:24:30 145.825
DANDE 28 Jul 05:21:16 05:23:23 17° 96° (E) 05:25:21 436.750
ITAMSAT 1 28 Jul 05:26:20 05:31:03 35° 298° (WNW) 05:35:43 435.822/435.867
O/OREOS (USA 219) 28 Jul 05:30:37 05:34:17 23° 319° (NW) 05:37:55 437.305
GONETS M04 28 Jul 05:41:04 05:46:38 20° 73° (ENE) 05:52:32
BEESAT 3 28 Jul 05:46:34 05:49:15 16° 355° (N) 05:51:54 437.485
JAS-2 28 Jul 05:52:39 06:00:07 62° 293° (WNW) 06:07:49 435.910
AIST 2 28 Jul 06:00:17 06:03:39 22° 342° (NNW) 06:06:59 435.215
AO-7 28 Jul 06:08:54 06:17:19 84° 110° (ESE) 06:25:41 29.400- 29.500
CUSAT 1 28 Jul 06:13:27 06:16:20 62° 284° (WNW) 06:18:58 437.405
PRISM 28 Jul 06:14:13 06:17:10 19° 58° (ENE) 06:20:12 437.425
Gurwin Techsat 1B 28 Jul 06:18:00 06:21:21 17° 309° (NW) 06:24:32 435.225
MOZHAYETS 4 28 Jul 06:18:17 06:21:49 21° 271° (W) 06:25:17
CUBESAT XI-V 28 Jul 06:20:49 06:25:27 63° 71° (ENE) 06:30:06 437.345
CUTE-I 28 Jul 06:21:25 06:23:23 12° 81° (E) 06:25:37 437.470
STRAND 1 28 Jul 06:38:16 06:43:02 40° 64° (ENE) 06:47:50 437.568
BEESAT 2 28 Jul 06:38:24 06:41:06 17° 5° (N) 06:43:50 435.950
Cosmos 2504 28 Jul 06:49:33 06:54:53 20° 312° (NW) 07:00:16 435.465 / 435.565
HORYU 2 28 Jul 06:50:04 06:54:00 29° 298° (WNW) 06:57:53 437.375
RS-15 28 Jul 06:50:34 07:02:12 79° 41° (NE) 07:14:22 29.354- 29.394
Cubesat XI-IV 28 Jul 07:02:23 07:06:47 26° 91° (E) 07:11:14 437.490
DANDE 28 Jul 07:03:37 07:06:24 26° 289° (WNW) 07:08:48 436.750
BEESAT 3 28 Jul 07:25:20 07:28:30 21° 19° (NNE) 07:31:40 437.485
M-CUBED/EXP-1 PRIME 28 Jul 07:26:14 07:27:14 11° 40° (NE) 07:28:23 437.505
GONETS M04 28 Jul 07:33:28 07:42:06 74° 96° (E) 07:50:48
JAS-2 28 Jul 07:38:39 07:43:58 21° 314° (NW) 07:49:15 435.910
AIST 2 28 Jul 07:40:40 07:43:34 17° 5° (N) 07:46:27 435.215
PRISM 28 Jul 07:48:01 07:52:13 67° 257° (WSW) 07:56:24 437.425
AUBIESAT-1 28 Jul 07:58:12 08:00:43 16° 46° (NE) 08:03:27 437.475
CUTE-I 28 Jul 07:59:17 08:04:38 67° 102° (ESE) 08:09:57 437.470
CUBESAT XI-V 28 Jul 07:59:43 08:03:20 21° 271° (W) 08:06:51 437.345
BRITE-PL 28 Jul 08:00:04 08:01:23 11° 84° (E) 08:02:56 437.365/2234.400
AO-7 28 Jul 08:02:11 08:09:29 34° 313° (NW) 08:16:37 29.400- 29.500
BEESAT 2 28 Jul 08:16:40 08:20:19 29° 28° (NNE) 08:23:57 435.950
STRAND 1 28 Jul 08:17:26 08:22:17 39° 263° (W) 08:27:06 437.568
Cosmos 2499 28 Jul 08:29:19 08:36:09 43° 87° (E) 08:43:35 435.465 / 435.565
GOMX 1 28 Jul 08:32:54 08:35:26 15° 87° (E) 08:38:11 467.674
Cubesat XI-IV 28 Jul 08:42:02 08:47:20 62° 292° (WNW) 08:52:35 437.490
DOVE 4 28 Jul 08:43:38 08:45:38 13° 85° (E) 08:47:51 437.250
HO-68 28 Jul 08:44:20 08:49:02 19° 83° (E) 08:54:00 435.675
M-CUBED/EXP-1 PRIME 28 Jul 08:57:06 09:00:59 46° 61° (ENE) 09:05:15 437.505
BEESAT 3 28 Jul 09:03:06 09:07:10 61° 41° (NE) 09:11:10 437.485
RS-15 28 Jul 09:03:19 09:14:07 45° 246° (WSW) 09:25:09 29.354- 29.394
YUBILEINY 28 Jul 09:03:37 09:05:19 11° 24° (NNE) 09:07:19 435.215
ANTELSAT 28 Jul 09:09:58 09:11:31 12° 51° (NE) 09:13:14 437.575/2403.000
TIGRISAT 28 Jul 09:10:20 09:11:43 11° 51° (NE) 09:13:16 435.000
AIST 2 28 Jul 09:19:29 09:23:18 31° 29° (NNE) 09:27:04 435.215
COMPASS 1 28 Jul 09:23:37 09:26:11 16° 87° (E) 09:28:54 437.405
CINEMA 3 28 Jul 09:25:07 09:27:53 16° 87° (E) 09:30:53 145.822/145.860
CUTE 1.7 + AOD 2 28 Jul 09:26:15 09:29:46 24° 91° (E) 09:33:21 437.475
AUBIESAT-1 28 Jul 09:30:40 09:34:44 79° 65° (ENE) 09:39:10 437.475
SEEDS 28 Jul 09:30:43 09:34:05 22° 90° (E) 09:37:30 437.485
GONETS M04 28 Jul 09:31:59 09:39:51 35° 301° (WNW) 09:47:37
CANX-2 28 Jul 09:33:44 09:37:35 31° 94° (E) 09:41:27 2200.000
BRITE-PL 28 Jul 09:36:28 09:40:42 83° 103° (ESE) 09:45:08 437.365/2234.400
CUTE-I 28 Jul 09:39:57 09:44:22 26° 303° (WNW) 09:48:40 437.470
BEESAT 2 28 Jul 09:54:36 09:58:42 68° 230° (SW) 10:02:43 435.950
AO-7 28 Jul 09:55:31 09:59:55 15° 339° (NNW) 10:04:09 29.400- 29.500
UNISAT 6 28 Jul 09:58:55 10:02:34 27° 62° (ENE) 10:06:22 437.425
QB50P1 28 Jul 10:05:58 10:08:20 15° 56° (NE) 10:10:49 145.935-145.965
ZACube-1 28 Jul 10:06:10 10:08:04 13° 84° (E) 10:10:10 437.345
DUCHIFAT 1 28 Jul 10:06:15 10:08:31 15° 56° (NE) 10:10:55 145.980
AAUSAT CUBESAT 2 28 Jul 10:08:09 10:12:01 34° 95° (E) 10:15:53 437.432
NANOSAT C BR1 28 Jul 10:08:54 10:11:22 16° 56° (ENE) 10:13:58 145.865
GOMX 1 28 Jul 10:09:49 10:14:08 78° 286° (WNW) 10:18:41 467.674
UWE-3 28 Jul 10:19:00 10:22:21 21° 89° (E) 10:25:52 435.000/436.395/437.385
DOVE 4 28 Jul 10:19:41 10:24:06 86° 104° (ESE) 10:28:46 437.250
SO-50 28 Jul 10:20:51 10:22:33 12° 109° (ESE) 10:24:29 436.795
Cosmos 2499 28 Jul 10:21:57 10:29:13 53° 292° (WNW) 10:37:05 435.465 / 435.565
Cubesat XI-IV 28 Jul 10:23:33 10:26:32 15° 312° (NW) 10:29:21 437.490
CUBEBUG 2 28 Jul 10:24:54 10:28:48 28° 93° (E) 10:32:50 437.445
DELFI C3 28 Jul 10:25:46 10:28:34 18° 89° (E) 10:31:28 145.870
FUNcube-1 28 Jul 10:28:55 10:32:09 20° 89° (E) 10:35:31 145.935
HO-68 28 Jul 10:30:54 10:38:07 76° 106° (ESE) 10:45:19 435.675
M-CUBED/EXP-1 PRIME 28 Jul 10:32:34 10:36:01 26° 262° (W) 10:39:41 437.505
O/OREOS (USA 219) 28 Jul 10:35:46 10:38:44 17° 35° (NE) 10:41:44 437.305
PCSat 28 Jul 10:39:38 10:44:12 29° 114° (ESE) 10:48:52 145.827
BEESAT 3 28 Jul 10:41:31 10:44:49 24° 241° (WSW) 10:48:01 437.485
ANTELSAT 28 Jul 10:43:10 10:47:27 62° 71° (ENE) 10:51:53 437.575/2403.000
TIGRISAT 28 Jul 10:43:21 10:47:37 60° 70° (ENE) 10:52:01 435.000
POLYITAN 1 28 Jul 10:45:09 10:48:50 30° 64° (ENE) 10:52:34 437.675
Oscar 11 28 Jul 10:49:05 10:53:15 41° 97° (E) 10:57:24 145.826/435.025
AIST 2 28 Jul 10:57:59 11:02:11 66° 231° (SW) 11:06:19 435.215
COMPASS 1 28 Jul 10:58:08 11:02:24 72° 287° (WNW) 11:06:37 437.405
YUBILEINY 28 Jul 10:58:39 11:06:08 30° 55° (NE) 11:13:47 435.215
CINEMA 3 28 Jul 11:01:09 11:05:40 81° 287° (WNW) 11:10:23 145.822/145.860
CUTE 1.7 + AOD 2 28 Jul 11:01:45 11:05:55 47° 291° (WNW) 11:10:03 437.475
POPSAT HIP 1 28 Jul 11:03:42 11:07:40 43° 68° (ENE) 11:11:41 437.405
SEEDS 28 Jul 11:05:59 11:10:10 51° 290° (WNW) 11:14:18 437.485
AUBIESAT-1 28 Jul 11:07:37 11:10:09 15° 269° (W) 11:12:38 437.475
CANX-2 28 Jul 11:09:34 11:13:35 37° 294° (WNW) 11:17:33 2200.000
QB50P2 28 Jul 11:10:05 11:14:09 50° 69° (ENE) 11:18:16 145.880/145.840
DX 1 28 Jul 11:12:06 11:14:43 16° 88° (E) 11:17:29 434.975-435.025
BRITE-PL 28 Jul 11:16:13 11:18:48 16° 303° (WNW) 11:21:19 437.365/2234.400
RS-15 28 Jul 11:20:58 11:23:37 11° 270° (W) 11:25:11 29.354- 29.394
HUMSAT D 28 Jul 11:27:43 11:31:32 30° 94° (E) 11:35:23 437.325/437.525
BUGSAT 1 28 Jul 11:31:00 11:34:56 50° 69° (ENE) 11:38:53 437.445
BEESAT 2 28 Jul 11:34:46 11:36:02 11° 249° (WSW) 11:37:08 435.950
UNISAT 6 28 Jul 11:34:58 11:39:10 46° 262° (W) 11:43:29 437.425
GONETS M04 28 Jul 11:37:09 11:40:19 12° 331° (NNW) 11:43:10
QB50P1 28 Jul 11:39:26 11:43:38 89° 254° (WSW) 11:47:53 145.935-145.965
DUCHIFAT 1 28 Jul 11:39:33 11:43:45 88° 75° (ENE) 11:47:58 145.980
ZACube-1 28 Jul 11:40:41 11:45:12 82° 104° (ESE) 11:49:46 437.345
NANOSAT C BR1 28 Jul 11:42:28 11:46:40 85° 255° (WSW) 11:50:55 145.865
Cosmos 2491 28 Jul 11:42:43 11:47:48 18° 72° (ENE) 11:53:16 435.465 / 435.565
AAUSAT CUBESAT 2 28 Jul 11:43:47 11:47:36 33° 295° (WNW) 11:51:22 437.432
AO-7 28 Jul 11:46:18 11:49:14 12° 7° (N) 11:52:16 29.400- 29.500
GOMX 1 28 Jul 11:49:32 11:51:44 14° 305° (NW) 11:53:50 467.674
UWE-3 28 Jul 11:54:49 11:59:17 62° 289° (WNW) 12:03:50 435.000/436.395/437.385
SO-50 28 Jul 11:57:28 12:02:13 61° 128° (SE) 12:07:06 436.795
DOVE 4 28 Jul 11:58:35 12:01:25 17° 302° (WNW) 12:04:12 437.250
DELFI C3 28 Jul 12:00:00 12:04:03 59° 289° (WNW) 12:08:02 145.870
CUBEBUG 2 28 Jul 12:01:20 12:05:40 46° 292° (WNW) 12:10:06 437.445
FUNcube-1 28 Jul 12:04:29 12:08:55 64° 288° (WNW) 12:13:25 145.935
AISAT 28 Jul 12:05:03 12:08:57 31° 95° (E) 12:12:54 437.250
O/OREOS (USA 219) 28 Jul 12:14:29 12:19:03 67° 57° (ENE) 12:23:37 437.305
HO-68 28 Jul 12:19:09 12:25:23 33° 308° (NW) 12:31:31 435.675
Cosmos 2499 28 Jul 12:20:11 12:24:53 16° 320° (NW) 12:29:29 435.465 / 435.565
POLYITAN 1 28 Jul 12:20:45 12:24:40 37° 263° (W) 12:28:37 437.675
ANTELSAT 28 Jul 12:21:30 12:24:43 19° 272° (W) 12:27:54 437.575/2403.000
TIGRISAT 28 Jul 12:21:34 12:24:48 20° 271° (W) 12:28:02 435.000
50 SAT 28 Jul 12:21:40 12:25:33 49° 99° (E) 12:29:26 437.505
Oscar 19 28 Jul 12:21:42 12:25:25 21° 55° (NE) 12:29:14 437.125/150
PCSat 28 Jul 12:21:54 12:27:18 67° 314° (NW) 12:32:45 145.827
Oscar 11 28 Jul 12:25:30 12:29:19 29° 297° (WNW) 12:33:04 145.826/435.025
UKube-1 28 Jul 12:25:46 12:30:06 65° 103° (ESE) 12:34:24 .
AIST 1 28 Jul 12:29:29 12:32:29 19° 86° (E) 12:35:34
CUBEBUG 1 28 Jul 12:32:46 12:36:43 33° 96° (E) 12:40:39 437.445
COMPASS 1 28 Jul 12:35:26 12:37:22 13° 306° (NW) 12:39:09 437.405
AIST 2 28 Jul 12:38:42 12:40:01 11° 249° (WSW) 12:41:08 435.215
CINEMA 3 28 Jul 12:39:41 12:42:18 15° 304° (NW) 12:44:51 145.822/145.860
ESTCUBE 1 28 Jul 12:39:47 12:44:08 45° 98° (E) 12:48:28 437.505/2401.250
Cosmos 2504 28 Jul 12:40:00 12:45:21 19° 47° (NE) 12:51:09 435.465 / 435.565
POPSAT HIP 1 28 Jul 12:40:10 12:43:43 26° 267° (W) 12:47:15 437.405
VELOX 1 28 Jul 12:45:12 12:49:37 68° 102° (ESE) 12:54:01 145.980
QB50P2 28 Jul 12:46:59 12:50:20 22° 269° (W) 12:53:38 145.880/145.840
DX 1 28 Jul 12:47:12 12:51:33 75° 288° (WNW) 12:55:53 434.975-435.025
JAS-2 28 Jul 12:47:33 12:49:30 12° 32° (NNE) 12:51:44 435.910
Gurwin Techsat 1B 28 Jul 12:47:57 12:50:39 14° 48° (NE) 12:53:30 435.225
YUBILEINY 28 Jul 12:55:21 13:04:14 86° 260° (W) 13:13:04 435.215
HUMSAT D 28 Jul 13:03:20 13:07:21 38° 293° (WNW) 13:11:20 437.325/437.525
BUGSAT 1 28 Jul 13:07:35 13:10:42 20° 269° (W) 13:13:45 437.445
ZACube-1 28 Jul 13:18:02 13:21:03 18° 303° (WNW) 13:24:01 437.345
DUCHIFAT 1 28 Jul 13:18:15 13:20:15 13° 275° (W) 13:22:05 145.980
QB50P1 28 Jul 13:18:19 13:20:13 12° 275° (W) 13:21:58 145.935-145.965
NANOSAT C BR1 28 Jul 13:21:35 13:23:16 12° 276° (W) 13:24:44 145.865
SPROUT 28 Jul 13:25:14 13:29:14 37° 96° (E) 13:33:14 437.525
ITAMSAT 1 28 Jul 13:32:48 13:36:58 25° 57° (ENE) 13:41:14 435.822/435.867
AO-7 28 Jul 13:33:09 13:38:59 22° 35° (NE) 13:45:00 29.400- 29.500
UWE-3 28 Jul 13:33:13 13:35:03 12° 307° (NW) 13:36:44 435.000/436.395/437.385
Cosmos 2491 28 Jul 13:34:29 13:43:07 67° 94° (E) 13:51:47 435.465 / 435.565
DELFI C3 28 Jul 13:37:51 13:38:19 10° 308° (NW) 13:38:38 145.870
SO-50 28 Jul 13:38:26 13:43:02 39° 330° (NNW) 13:47:43 436.795
AISAT 28 Jul 13:41:30 13:45:37 39° 294° (WNW) 13:49:43 437.250
FUNcube-1 28 Jul 13:42:34 13:44:29 12° 307° (NW) 13:46:15 145.935
TISAT 1 28 Jul 13:53:54 13:57:56 44° 99° (E) 14:01:59 437.305
O/OREOS (USA 219) 28 Jul 13:54:40 13:58:05 20° 257° (WSW) 14:01:24 437.305
50 SAT 28 Jul 13:56:44 13:59:53 22° 298° (WNW) 14:02:57 437.505
Oscar 19 28 Jul 13:59:07 14:04:15 83° 257° (WSW) 14:09:25 437.125/150
UKube-1 28 Jul 14:02:37 14:05:51 20° 302° (WNW) 14:08:59 .
AIST 1 28 Jul 14:05:25 14:09:46 60° 285° (WNW) 14:14:05
PCSat 28 Jul 14:07:13 14:11:42 25° 338° (NNW) 14:16:10 145.827
HO-68 28 Jul 14:08:32 14:11:05 12° 332° (NNW) 14:13:27 435.675
CUBEBUG 1 28 Jul 14:09:08 14:13:06 35° 295° (WNW) 14:17:00 437.445
BEESAT 28 Jul 14:09:48 14:12:33 15° 86° (E) 14:15:27 436.000
ESTCUBE 1 28 Jul 14:16:58 14:20:51 28° 298° (WNW) 14:24:40 437.505/2401.250
VELOX 1 28 Jul 14:22:31 14:25:47 20° 302° (WNW) 14:28:58 145.980
Gurwin Techsat 1B 28 Jul 14:24:29 14:29:42 60° 69° (ENE) 14:34:59 435.225
DX 1 28 Jul 14:24:54 14:27:08 14° 307° (NW) 14:29:14 434.975-435.025
JAS-2 28 Jul 14:27:02 14:32:32 34° 56° (NE) 14:38:44 435.910
SWISSCUBE 28 Jul 14:29:01 14:32:50 24° 91° (E) 14:36:42 437.505
Cosmos 2504 28 Jul 14:31:29 14:39:33 61° 72° (ENE) 14:48:02 435.465 / 435.565
HORYU 2 28 Jul 14:43:01 14:45:39 16° 54° (NE) 14:48:25 437.375
ITUPSAT 1 28 Jul 14:47:40 14:51:54 30° 94° (E) 14:56:09 437.325
YUBILEINY 28 Jul 14:53:14 14:59:58 25° 283° (WNW) 15:06:26 435.215
CUSAT 1 28 Jul 14:59:00 15:00:58 15° 65° (ENE) 15:03:19 437.405
SPROUT 28 Jul 15:01:26 15:05:16 31° 296° (WNW) 15:09:03 437.525
ITAMSAT 1 28 Jul 15:10:53 15:16:06 68° 257° (WSW) 15:21:21 435.822/435.867
SO-50 28 Jul 15:20:52 15:24:47 23° 354° (N) 15:28:43 436.795
AO-7 28 Jul 15:22:10 15:30:16 57° 59° (ENE) 15:38:25 29.400- 29.500
TISAT 1 28 Jul 15:30:00 15:33:32 26° 298° (WNW) 15:37:02 437.305
Cosmos 2491 28 Jul 15:32:34 15:40:41 39° 299° (WNW) 15:48:41 435.465 / 435.565
GONETS M04 28 Jul 15:39:35 15:44:47 17° 40° (NE) 15:50:16
Oscar 19 28 Jul 15:41:32 15:44:30 15° 276° (W) 15:47:17 437.125/150
BEESAT 28 Jul 15:46:18 15:51:08 88° 294° (WNW) 15:55:56 436.000
AIST 1 28 Jul 15:48:03 15:48:28 10° 307° (NW) 15:48:42
DANDE 28 Jul 15:51:18 15:53:55 25° 70° (ENE) 15:57:06 436.750
STARS 28 Jul 15:51:57 15:54:43 17° 88° (E) 15:57:37 437.465
PCSat 28 Jul 15:53:05 15:56:55 19° 3° (N) 16:00:46 145.827
Gurwin Techsat 1B 28 Jul 16:05:38 16:10:07 26° 269° (W) 16:14:32 435.225
SWISSCUBE 28 Jul 16:06:20 16:11:04 58° 291° (WNW) 16:15:45 437.505
KKS-1 28 Jul 16:07:40 16:11:44 33° 96° (E) 16:15:48 437.445
JAS-2 28 Jul 16:11:10 16:17:13 65° 260° (W) 16:24:09 435.910
HORYU 2 28 Jul 16:17:13 16:21:41 86° 73° (ENE) 16:26:12 437.375
Cosmos 2504 28 Jul 16:24:04 16:31:35 41° 274° (W) 16:39:19 435.465 / 435.565
ITUPSAT 1 28 Jul 16:25:23 16:29:59 45° 294° (WNW) 16:34:31 437.325
MOZHAYETS 4 28 Jul 16:31:29 16:31:49 10° 80° (E) 16:32:24
CUSAT 1 28 Jul 16:40:18 16:43:40 57° 259° (WSW) 16:48:00 437.405
Cubesat XI-IV 28 Jul 16:53:05 16:56:25 17° 51° (NE) 16:59:53 437.490
ITAMSAT 1 28 Jul 16:54:30 16:56:43 12° 278° (W) 16:58:42 435.822/435.867
SO-50 28 Jul 17:02:30 17:06:45 27° 18° (NNE) 17:11:00 436.795
AO-7 28 Jul 17:15:19 17:23:21 47° 261° (W) 17:31:21 29.400- 29.500
BEESAT 28 Jul 17:25:11 17:28:23 18° 306° (NW) 17:31:28 436.000
STARS 28 Jul 17:27:19 17:31:44 74° 288° (WNW) 17:36:09 437.465
DANDE 28 Jul 17:34:24 17:37:00 23° 263° (W) 17:40:03 436.750
GONETS M04 28 Jul 17:35:49 17:44:18 53° 68° (ENE) 17:52:48
Cosmos 2491 28 Jul 17:37:03 17:40:57 13° 329° (NNW) 17:44:32 435.465 / 435.565
PCSat 28 Jul 17:37:13 17:42:00 30° 29° (NNE) 17:46:49 145.827
HO-68 28 Jul 17:37:58 17:39:58 11° 27° (NNE) 17:42:11 435.675
KKS-1 28 Jul 17:44:17 17:48:24 36° 295° (WNW) 17:52:29 437.445
SWISSCUBE 28 Jul 17:45:59 17:48:02 12° 311° (NW) 17:49:56 437.505
CUTE-I 28 Jul 17:48:12 17:53:05 37° 62° (ENE) 17:58:02 437.470
HORYU 2 28 Jul 17:56:30 17:59:02 14° 274° (W) 18:01:25 437.375
JAS-2 28 Jul 18:00:44 18:04:06 14° 285° (WNW) 18:07:19 435.910
MOZHAYETS 4 28 Jul 18:05:26 18:10:05 65° 102° (ESE) 18:14:42
ITUPSAT 1 28 Jul 18:06:29 18:06:49 10° 314° (NW) 18:06:58 437.325
Cosmos 2499 28 Jul 18:11:13 18:18:16 29° 55° (NE) 18:25:43 435.465 / 435.565
CUBESAT XI-V 28 Jul 18:14:12 18:14:38 10° 81° (E) 18:15:19 437.345
Cubesat XI-IV 28 Jul 18:30:23 18:35:45 74° 71° (ENE) 18:41:09 437.490
SO-50 28 Jul 18:43:07 18:48:06 67° 41° (NE) 18:53:01 436.795
